Theta_e
306 306 306 305 305 305 305 305 304 304 303 301 300 299 299 299 299 299 300 299 299 299 298 298 298 297 297 297 298 298 298 298 298 299 299 300 301 302 304 305 305 305 307 308 308 308 309 310 311 312 313 316 318 321 323 325 325 326 327 328 328 328 327 326 326 326 326 326 327 327 327 328 328 328 328 328 328 328 328 327 327 328 328 328 328
306 305 305 305 305 304 304 304 304 304 303 300 299 299 299 298 298 298 298 298 298 298 297 297 297 297 296 296 296 297 297 297 297 297 297 298 300 301 302 303 303 303 304 305 306 307 307 308 310 309 310 312 314 317 320 322 324 326 326 327 327 327 327 326 326 326 326 325 325 326 326 327 328 328 328 328 328 328 328 327 327 328 328 329 329
305 305 305 304 303 303 303 303 303 304 303 301 300 299 298 297 298 297 297 297 297 297 297 297 296 296 296 296 296 296 296 296 296 297 297 297 297 298 299 300 301 302 303 303 304 305 305 306 307 307 307 308 309 311 313 316 318 322 324 326 327 326 326 326 326 326 326 325 325 325 326 327 328 328 328 328 328 328 327 326 326 327 328 328 328
304 304 303 302 301 300 300 300 301 302 302 300 299 298 297 296 297 297 297 297 297 297 297 296 296 296 296 296 295 295 295 295 296 296 296 296 296 296 297 298 299 300 301 302 303 303 304 304 304 304 305 306 306 307 308 308 310 314 318 322 325 326 326 326 326 326 326 325 325 325 326 327 328 328 328 329 328 328 327 326 326 326 327 327 327
303 302 301 300 299 299 298 298 299 300 299 299 298 297 296 295 295 296 296 297 297 296 297 296 296 296 296 295 295 295 295 295 295 296 296 297 296 296 296 297 298 299 300 300 301 301 302 302 302 303 304 304 304 304 304 304 304 306 311 316 320 323 325 325 326 326 325 325 325 325 325 326 327 328 328 328 327 327 327 326 326 326 326 326 326
302 302 301 300 300 299 298 297 298 298 298 298 297 297 296 296 295 295 295 295 296 296 296 296 296 296 296 295 295 296 295 295 295 295 296 296 297 296 296 296 297 297 298 298 299 299 300 300 300 301 302 303 302 302 302 301 301 302 305 309 313 318 322 324 325 325 325 325 324 324 324 325 326 327 327 327 327 326 326 325 326 326 326 326 326
302 303 302 301 300 299 298 297 298 298 298 298 297 296 296 296 296 295 295 294 295 295 295 296 296 296 296 296 296 296 296 295 295 295 295 296 296 296 296 296 296 296 296 297 297 297 298 298 299 300 301 301 301 300 300 299 299 300 301 303 307 311 316 320 324 325 325 325 324 324 324 324 326 326 326 327 327 326 326 325 325 325 325 326 325
302 302 302 301 300 299 298 297 297 298 298 298 298 297 297 296 296 295 294 294 294 294 294 295 296 296 296 296 296 296 296 295 295 295 295 295 295 295 295 295 295 296 296 296 296 296 296 297 297 299 300 300 299 299 298 298 297 298 299 300 301 305 308 314 320 324 325 324 324 324 324 324 325 326 326 326 326 325 325 324 324 324 324 325 325
300 301 302 301 300 299 298 297 297 298 298 298 298 297 295 294 294 293 293 293 292 292 293 294 296 296 296 296 296 296 296 295 295 295 294 294 295 295 294 294 294 295 295 295 295 296 296 295 296 298 299 299 298 298 297 296 295 296 298 299 300 301 303 307 313 321 325 325 325 325 325 325 325 325 325 325 325 325 325 324 324 323 323 323 324
299 300 301 301 300 300 299 298 297 296 297 297 296 294 292 292 292 292 292 292 292 292 292 294 295 296 296 296 296 296 295 295 296 295 294 294 294 294 294 294 294 294 295 295 295 295 295 295 295 296 297 297 297 296 296 295 295 295 296 298 299 299 302 304 308 314 322 325 325 325 325 325 325 325 325 325 325 325 324 324 323 322 322 322 321
298 299 299 300 300 299 298 297 296 296 297 296 293 292 292 292 292 292 292 292 292 292 292 293 294 295 296 296 296 295 295 295 296 295 294 294 294 294 294 294 294 294 294 294 294 294 294 294 295 295 296 296 296 295 295 296 298 299 299 300 300 300 301 304 306 310 316 322 325 325 324 324 324 325 325 325 324 323 323 323 323 321 321 321 320
298 298 298 297 297 296 296 296 296 296 296 294 293 293 293 292 292 292 292 292 292 292 292 293 294 295 295 295 295 295 295 295 296 295 294 294 294 294 293 293 293 293 293 294 294 294 294 294 294 295 295 295 295 294 294 296 298 300 301 302 303 303 303 303 305 307 311 317 322 324 325 324 324 324 325 325 324 323 323 323 322 321 320 321 320
296 296 296 295 294 294 294 295 295 295 294 294 293 293 293 293 292 292 292 292 292 292 293 293 294 294 294 295 295 295 295 296 296 295 294 294 294 294 293 293 293 293 293 293 293 293 293 293 294 294 294 294 293 293 292 294 297 299 300 301 303 304 305 306 307 308 310 313 317 321 324 324 324 324 324 325 324 323 322 322 321 321 321 321 321
295 295 295 294 294 294 294 294 294 294 294 294 294 293 293 293 292 292 292 292 292 292 293 293 293 293 294 294 295 296 296 296 296 295 294 294 293 293 293 293 293 293 293 292 293 292 292 292 293 293 293 292 292 292 292 292 293 296 297 298 299 301 304 307 308 308 310 312 314 317 321 323 324 324 324 324 324 323 322 321 321 321 321 321 321
295 295 295 295 294 294 294 294 294 294 294 294 293 293 293 293 292 292 292 292 292 292 292 292 293 293 293 294 295 295 296 296 296 295 294 294 293 293 293 293 293 293 293 292 292 292 291 292 292 292 292 291 291 292 292 291 292 293 294 295 297 298 300 303 305 306 307 310 312 314 318 321 323 324 324 324 324 323 323 322 321 321 320 320 319
295 295 295 295 295 295 294 294 294 294 294 294 293 293 293 293 292 292 292 292 292 291 291 292 292 292 293 294 295 295 296 296 296 295 294 294 293 293 293 293 293 292 292 292 292 291 291 292 292 292 291 291 291 292 292 292 292 293 293 294 295 296 299 301 303 305 307 309 312 314 316 319 320 322 324 324 323 323 322 321 320 319 319 318 318
296 295 295 295 295 295 295 295 294 294 294 294 294 293 293 293 293 292 292 292 291 291 291 291 291 292 293 294 295 295 296 296 296 295 295 294 293 293 293 292 292 292 292 291 291 291 291 291 292 291 291 291 291 292 293 292 292 292 293 294 294 295 297 301 303 306 308 309 312 315 317 319 320 320 322 323 324 323 321 318 318 318 318 318 317
296 296 296 295 295 295 295 295 294 294 294 294 294 294 294 293 293 292 292 292 292 291 291 291 291 292 293 294 294 295 296 296 296 295 295 294 293 293 293 292 292 292 291 291 291 290 290 291 291 291 291 291 291 292 292 292 292 292 292 293 293 294 295 298 301 305 308 310 313 316 318 319 320 320 321 323 323 323 320 318 318 318 317 318 317
297 296 296 296 295 295 295 295 295 294 294 294 294 294 294 294 293 293 292 292 292 292 291 291 291 292 293 293 294 294 295 295 296 296 295 294 294 293 292 292 292 291 291 291 291 290 290 290 290 290 291 291 291 292 292 292 292 292 292 292 292 293 294 296 299 302 306 310 313 315 315 316 318 318 319 321 322 322 321 320 319 318 317 318 317
297 296 296 296 295 295 295 295 295 295 294 294 294 294 294 294 294 293 292 292 292 292 291 291 291 291 292 292 293 293 294 294 295 295 295 295 294 293 292 292 291 291 291 291 290 290 290 290 290 291 291 291 291 291 292 292 292 292 292 292 291 292 294 296 298 301 304 307 310 311 312 312 314 315 316 318 320 321 321 320 319 318 318 318 316
298 297 296 296 295 295 295 295 295 295 295 295 294 294 294 294 294 293 293 292 292 292 292 292 291 291 291 291 292 292 293 294 294 294 295 295 294 292 292 292 291 291 291 291 290 290 290 290 291 291 291 291 291 291 292 292 292 292 292 292 292 293 295 296 298 300 303 304 305 306 308 309 311 312 312 314 315 317 320 320 319 319 318 318 317
298 298 297 296 296 295 295 295 295 295 295 295 295 294 294 294 294 294 293 292 292 292 292 292 292 291 291 291 291 292 293 293 294 294 294 294 294 293 292 291 292 291 291 291 290 290 290 291 291 291 291 291 291 291 291 292 292 292 292 292 293 294 295 296 297 299 300 301 301 301 303 305 306 308 308 309 310 312 315 317 318 318 318 318 318
298 298 298 297 297 296 296 296 295 295 295 295 295 295 294 294 294 294 293 293 292 292 292 292 292 291 291 291 291 292 293 293 293 294 294 294 294 293 292 292 292 292 291 291 291 291 291 291 291 291 291 291 292 291 291 291 292 292 292 292 293 293 294 295 296 297 298 299 299 299 299 300 302 304 305 305 306 308 311 314 316 317 317 317 317
298 298 298 298 297 297 296 296 296 296 295 295 295 295 295 294 294 294 294 293 293 292 292 292 292 291 291 291 291 292 293 293 293 293 293 293 293 293 293 292 292 292 292 291 291 291 291 291 291 291 291 291 291 291 291 291 291 291 292 292 292 293 293 293 294 295 296 297 298 298 298 298 299 301 302 303 304 305 307 310 312 314 315 315 316
298 298 298 298 298 298 297 297 297 296 296 295 295 295 295 295 294 294 294 293 293 293 292 292 292 292 291 291 291 291 292 292 292 292 292 292 292 293 293 293 292 293 293 292 292 291 291 291 291 291 291 291 291 291 291 291 291 291 291 291 291 291 292 292 293 294 295 295 296 297 297 297 298 300 302 303 304 304 305 306 308 311 313 314 314
299 298 298 298 298 298 298 298 297 297 296 296 295 295 295 295 295 294 294 294 293 293 293 293 292 292 292 291 291 291 291 292 292 292 292 292 293 293 293 292 292 293 293 292 292 292 291 291 291 291 291 291 291 291 291 291 291 291 291 291 291 291 291 291 292 292 293 294 295 295 296 296 297 299 301 302 303 303 303 304 304 306 308 311 311
299 299 299 299 298 298 298 298 298 297 297 296 296 295 295 295 295 295 294 294 293 293 293 293 292 292 292 291 291 291 291 291 292 292 292 292 293 293 293 292 292 293 292 292 292 292 291 291 291 291 291 291 291 291 291 291 291 291 291 291 291 291 291 291 291 292 292 293 294 294 295 296 296 297 299 300 300 300 301 303 303 303 304 306 307
299 299 299 299 299 299 298 298 297 297 297 296 296 295 295 295 295 295 295 294 294 293 293 293 293 293 292 292 291 291 291 291 291 291 292 292 292 292 292 292 292 292 292 292 292 292 291 291 291 291 291 291 291 291 291 291 291 291 291 291 291 291 291 291 291 291 292 292 293 293 294 295 295 296 297 297 297 298 299 300 301 301 302 302 302
298 298 298 298 298 298 298 297 297 296 296 296 295 295 295 295 295 295 295 295 294 293 293 293 293 293 292 292 291 291 291 291 291 291 292 292 292 292 292 292 292 292 292 292 292 292 291 291 291 291 290 290 290 290 291 291 291 291 291 291 291 291 290 290 290 290 291 292 292 292 293 293 294 295 295 296 296 296 297 298 298 299 300 299 298
298 298 298 297 297 297 297 297 297 296 296 296 295 295 295 295 295 295 295 295 294 294 293 293 293 293 293 292 292 291 291 291 291 291 291 292 292 292 292 292 292 292 292 292 292 291 291 291 291 290 290 290 290 290 290 290 290 291 291 291 291 291 290 290 290 290 291 291 291 291 292 292 293 293 294 294 294 295 296 296 296 297 297 297 297
298 298 298 297 297 297 297 297 297 296 296 296 295 295 295 295 295 295 295 295 295 294 294 293 293 293 293 293 292 292 291 291 291 290 291 291 292 292 292 292 292 292 292 292 292 291 290 290 290 290 290 290 290 290 290 290 290 290 290 291 291 291 290 290 290 290 291 291 291 291 291 292 292 292 293 293 293 294 294 295 295 295 295 296 296
298 298 298 298 297 297 297 297 297 296 296 296 296 295 295 295 295 295 295 295 295 294 294 294 293 293 293 293 293 292 292 292 291 291 291 291 292 292 292 292 292 292 292 292 291 291 290 290 290 290 290 290 290 290 290 290 289 289 290 290 290 291 291 291 291 291 291 291 291 291 291 291 292 292 292 293 293 293 293 293 293 294 294 294 295
298 298 298 298 297 297 297 297 296 296 296 296 296 296 295 295 295 295 295 295 295 295 294 294 294 294 294 293 293 293 292 292 292 291 291 290 291 291 291 292 292 292 292 291 291 291 291 290 290 290 290 290 291 290 290 290 289 289 289 289 290 290 291 291 291 292 291 291 291 291 291 292 292 292 292 292 292 292 292 292 293 293 293 293 293
298 298 298 298 298 297 297 297 296 296 296 296 296 296 296 296 295 295 295 295 295 295 295 295 294 294 294 294 293 293 293 292 292 292 291 290 290 291 291 291 291 291 291 291 291 291 290 290 290 290 290 290 291 291 290 290 290 289 289 289 289 290 291 291 291 291 291 291 291 291 291 292 292 292 292 292 292 292 292 292 292 292 292 292 293
298 298 298 298 298 298 297 297 297 296 296 296 296 296 296 296 296 295 295 295 295 295 295 295 295 294 294 294 294 293 293 293 292 292 291 291 290 290 290 290 291 291 291 291 291 291 291 290 290 290 290 290 291 291 290 290 290 290 289 289 289 289 290 291 291 291 291 291 291 291 292 292 292 292 292 292 292 292 292 292 292 292 292 292 292
297 298 298 298 298 298 297 297 297 296 296 296 296 296 296 296 296 295 295 295 295 295 295 295 295 294 294 294 294 294 293 293 293 292 292 291 290 290 290 290 290 290 291 291 291 291 291 290 290 290 290 291 291 291 290 290 290 290 290 290 289 288 289 290 290 291 291 291 291 291 292 292 292 293 293 292 292 292 292 292 292 292 293 293 292
297 298 298 298 298 298 297 297 297 297 296 296 296 296 296 296 296 296 296 295 295 295 295 295 295 295 294 294 294 294 294 293 293 292 292 291 290 290 290 290 291 290 290 290 291 291 291 290 290 291 291 291 291 290 290 290 290 290 290 290 290 289 288 289 290 291 291 291 292 292 292 292 292 293 293 293 292 292 292 292 292 292 293 293 293
297 297 298 298 297 297 297 297 297 297 296 296 296 296 296 296 296 296 296 296 295 295 295 295 295 295 295 294 294 294 294 293 293 293 292 291 291 291 290 290 290 291 290 290 291 291 291 291 290 290 290 290 290 290 290 290 289 289 289 290 290 289 288 288 289 290 291 291 291 291 291 292 292 293 293 293 293 293 293 293 293 292 292 293 292
297 297 298 297 296 296 296 296 296 297 297 296 296 296 296 295 296 296 296 296 296 295 295 295 295 295 295 294 294 294 294 294 293 293 292 292 291 291 291 291 290 291 291 290 290 290 291 291 290 290 290 290 290 290 290 289 289 289 289 289 289 289 288 288 288 289 290 291 291 291 291 291 292 293 293 294 294 294 293 293 293 293 292 292 292
297 297 297 296 295 295 295 296 296 296 297 296 296 296 295 296 296 296 296 295 295 295 295 295 295 295 295 295 294 294 294 294 294 293 293 292 292 291 291 291 291 291 291 291 290 290 290 290 290 290 290 290 290 290 289 289 289 288 288 288 289 289 288 288 287 288 288 289 290 290 290 291 291 292 292 293 294 294 294 294 294 293 293 292 292
297 297 296 295 295 295 295 296 296 296 296 296 296 296 295 295 296 296 295 295 295 295 295 295 295 295 295 295 294 294 294 294 294 293 293 293 292 292 291 291 291 291 291 291 290 290 290 290 290 290 290 290 290 290 290 289 289 288 287 288 289 289 288 288 288 287 288 288 288 288 289 289 290 291 291 291 292 293 294 294 294 294 294 293 293
297 297 296 295 295 295 295 296 296 296 296 296 296 296 296 295 295 295 295 295 295 295 295 295 295 295 295 295 295 294 294 294 294 294 293 293 293 292 292 291 291 291 291 291 291 290 290 290 290 290 290 290 290 290 290 289 289 287 287 288 289 289 288 287 287 288 288 288 288 288 288 288 288 289 290 290 291 291 293 294 294 295 294 294 294
297 296 296 296 296 295 295 295 296 295 296 296 296 296 296 295 295 296 295 295 295 295 295 295 295 295 295 295 295 294 294 294 294 294 294 293 293 292 292 292 291 291 291 291 291 290 290 290 290 290 290 290 290 290 290 290 289 287 286 287 289 288 288 287 287 288 288 288 288 288 288 288 288 288 289 290 290 290 291 292 294 294 295 294 294
296 296 296 296 296 295 294 295 295 295 295 295 295 295 295 295 295 295 295 295 295 295 294 294 294 294 294 294 295 295 294 294 294 294 293 293 293 293 292 292 292 291 291 291 291 291 291 290 290 290 290 290 290 290 290 290 288 287 286 288 289 288 288 288 288 288 288 288 288 288 288 288 288 288 288 288 290 290 290 290 292 293 294 294 294
296 296 296 296 296 295 295 294 294 295 295 295 295 295 295 295 295 295 295 295 295 295 294 294 294 294 294 294 294 294 294 294 294 294 294 293 293 293 293 292 292 292 291 291 291 291 291 291 290 290 290 290 290 290 290 289 288 287 287 288 288 288 288 288 288 288 288 288 288 288 288 287 287 287 287 287 288 290 290 290 290 291 292 292 293
296 296 296 296 296 296 295 295 294 294 295 295 295 295 295 295 295 295 295 295 295 294 294 294 294 294 294 294 294 294 294 294 294 294 294 293 293 293 293 293 292 292 292 291 291 291 291 291 291 290 290 290 290 289 289 289 288 287 286 287 288 288 288 288 288 288 288 288 288 288 288 287 287 288 287 287 288 289 290 290 290 290 290 290 291
297 296 295 295 296 297 296 295 294 294 295 295 295 295 294 294 294 294 294 294 294 294 294 294 293 294 294 294 293 293 293 293 294 294 294 293 293 293 293 293 292 292 292 292 291 291 291 291 291 290 290 290 290 290 289 289 289 288 287 287 287 288 288 289 289 288 288 288 289 288 288 288 288 288 287 287 287 289 290 290 290 290 290 290 290
298 296 295 295 296 297 296 295 294 294 295 295 295 294 294 294 294 294 294 294 294 294 294 294 294 294 294 294 293 293 293 293 293 293 294 293 293 293 293 293 293 293 292 292 292 292 291 291 291 290 290 290 290 290 289 289 289 289 288 287 287 287 287 288 288 288 288 288 288 288 288 288 288 287 287 287 288 289 289 290 289 289 289 290 290
299 298 297 296 296 296 295 294 294 294 295 295 294 295 294 294 294 294 294 294 294 294 294 294 294 293 293 293 293 293 293 293 293 293 293 293 293 293 293 293 293 293 292 292 292 292 291 291 291 290 290 290 290 290 290 289 289 289 289 288 288 287 287 287 287 288 288 288 288 288 288 288 288 287 287 288 289 289 289 290 290 290 290 289 289
298 298 298 297 296 295 295 294 294 294 295 295 294 294 294 294 294 294 294 294 294 294 294 294 294 293 293 293 293 293 293 293 292 293 293 293 293 293 293 293 293 293 293 292 292 292 292 291 291 291 290 290 290 290 290 289 289 289 289 289 288 288 287 287 287 288 288 288 288 288 288 288 288 288 288 289 289 289 289 290 290 290 290 290 289
298 298 297 297 297 296 295 294 294 294 294 295 294 294 294 294 294 294 294 294 294 294 294 294 294 294 293 293 293 293 293 293 292 292 293 293 293 293 293 293 293 293 293 292 292 292 292 292 291 291 291 290 290 290 289 289 289 289 289 289 288 288 288 288 288 288 288 288 288 288 288 288 288 288 288 289 289 289 289 289 289 290 290 290 289
Wind_Speed
18 18 18 18 19 20 20 20 19 20 21 24 25 26 26 25 24 23 22 22 22 23 23 24 25 26 27 29 30 31 32 32 33 32 30 28 28 28 28 28 27 28 29 30 29 30 29 28 28 28 28 27 26 27 28 28 27 26 24 25 26 24 25 22 12 10 16 19 19 21 23 25 26 28 30 32 33 35 35 36 36 35 36 36 34
18 17 16 17 17 18 18 17 17 18 20 24 25 26 26 26 25 25 25 24 24 24 24 25 26 27 29 31 31 32 33 34 34 34 31 29 29 29 29 29 28 27 28 29 28 27 27 26 25 26 27 27 26 26 26 27 28 28 25 23 24 25 26 25 19 13 13 18 21 21 22 25 27 29 30 31 32 33 34 35 35 35 36 36 35
17 16 17 17 17 18 18 18 18 18 20 22 24 25 25 26 26 26 27 26 25 25 25 26 27 28 30 32 33 34 35 35 35 35 33 29 28 29 29 28 28 26 25 26 26 26 26 25 25 27 28 29 29 27 27 27 27 28 27 25 25 26 26 26 25 18 14 16 20 22 22 24 26 28 29 31 31 31 33 34 35 35 35 35 35
17 18 19 20 20 21 21 20 20 21 22 22 23 24 25 26 26 26 26 26 26 26 26 26 28 29 30 31 33 34 36 37 37 37 35 32 30 30 30 28 26 24 24 25 26 25 25 25 26 26 27 30 31 29 29 31 30 29 27 25 25 27 25 24 26 25 20 16 18 23 23 23 25 26 27 29 29 31 33 33 34 35 35 35 36
20 20 21 21 22 23 24 23 23 23 23 23 23 24 25 26 26 26 25 25 26 26 26 27 28 29 29 29 32 34 35 37 38 38 36 34 32 30 30 28 25 23 23 24 25 25 24 24 24 24 25 29 31 31 30 32 33 30 28 26 25 25 25 24 24 25 23 18 17 20 22 23 24 24 25 27 28 28 30 31 32 33 33 34 35
19 19 20 20 21 22 23 24 24 23 23 23 23 23 24 24 25 25 24 24 25 25 25 26 27 28 28 28 30 33 35 36 38 39 37 35 33 31 30 28 26 24 24 24 25 25 24 24 23 23 24 27 29 30 30 31 33 31 28 27 28 26 25 24 22 21 21 20 18 18 19 21 23 23 25 27 28 28 27 27 29 32 32 33 33
16 17 17 18 19 21 22 23 22 22 22 22 22 22 22 22 23 23 23 23 23 24 24 25 25 27 28 28 29 31 34 36 38 39 39 36 34 33 31 29 27 26 26 26 25 25 25 25 23 23 25 27 27 28 29 31 32 32 28 27 29 29 27 24 21 21 20 19 18 17 18 20 22 24 25 27 28 29 28 25 25 28 32 34 34
15 16 17 18 19 20 21 21 20 20 19 19 20 21 21 20 20 20 20 20 21 21 22 22 23 24 26 27 28 30 33 36 38 39 38 37 35 34 33 31 28 25 26 28 28 28 27 26 24 23 25 27 26 26 27 28 31 33 32 31 29 27 27 27 22 20 21 19 18 19 19 19 21 23 24 24 26 26 27 27 27 27 30 33 35
17 17 18 18 18 19 19 19 18 17 16 17 18 18 18 18 18 18 19 20 20 20 20 21 22 24 25 26 28 30 32 34 36 37 36 36 35 34 34 33 30 27 25 27 30 29 29 28 25 24 26 27 26 27 27 26 27 30 33 34 32 28 25 25 23 20 20 19 17 18 19 18 20 21 21 24 28 28 26 27 27 28 30 31 32
18 19 19 18 17 16 16 16 16 16 17 17 18 18 19 20 21 22 22 22 21 20 20 20 22 23 25 26 27 29 31 32 33 35 35 35 34 34 34 34 32 29 26 27 29 29 28 29 27 25 27 29 31 32 33 32 30 29 31 32 31 28 25 22 21 21 19 18 17 17 15 15 20 22 22 27 30 27 26 26 26 27 28 25 23
20 20 20 19 17 15 15 15 15 16 17 18 19 21 23 24 25 25 24 24 23 21 21 21 22 23 24 25 27 28 30 31 32 34 35 35 35 34 34 34 33 31 28 27 28 29 29 29 28 27 28 31 34 35 38 41 40 37 35 33 29 25 23 21 22 23 21 19 19 19 17 17 21 24 25 27 27 25 27 29 27 25 24 19 15
21 21 21 19 18 17 17 17 17 17 18 19 20 23 24 25 26 25 24 24 23 23 22 22 22 23 24 25 26 27 28 29 31 33 34 35 36 35 35 35 34 33 30 27 26 28 29 29 27 27 28 31 33 36 41 45 45 42 40 37 33 28 23 21 22 23 24 23 20 19 19 20 22 24 26 26 26 27 30 30 29 27 26 23 18
23 22 22 22 22 21 21 20 19 19 18 18 20 22 24 24 24 24 24 23 23 23 23 22 22 23 24 25 26 26 27 28 30 32 33 34 36 37 36 35 35 34 33 30 27 28 28 28 27 27 29 31 31 34 40 44 45 46 44 41 38 35 29 25 22 21 23 25 24 23 22 22 23 25 27 28 28 29 29 28 29 30 28 27 27
24 24 24 24 23 23 22 22 21 19 18 18 19 21 22 23 23 24 24 24 24 23 23 23 23 23 24 25 25 26 26 27 28 30 32 34 36 37 37 37 36 36 35 33 30 29 28 27 27 28 30 31 32 34 39 40 40 43 44 42 41 39 36 30 26 23 22 24 27 27 26 24 26 27 28 30 30 30 29 28 30 32 30 28 28
24 23 23 22 21 21 21 21 20 19 18 18 19 20 21 22 23 24 25 25 25 24 23 23 23 24 24 24 25 25 26 26 27 28 31 34 36 37 37 37 38 37 36 35 32 30 28 26 27 28 30 30 32 36 40 38 36 38 40 40 39 40 39 35 30 28 25 24 26 29 28 26 27 29 29 30 31 32 34 34 34 33 31 26 23
21 21 20 19 19 19 19 20 20 19 19 19 19 19 20 22 23 24 25 26 26 25 24 23 23 24 24 25 26 26 26 26 26 28 31 34 35 37 38 38 38 38 37 35 33 30 27 26 28 29 29 31 34 37 38 36 34 35 36 38 37 38 40 38 34 30 27 24 24 26 27 26 26 28 29 29 30 33 34 31 27 27 26 21 18
19 18 18 17 17 17 17 18 18 18 18 18 18 18 20 22 23 24 25 26 27 27 25 24 23 23 25 26 27 27 27 27 26 27 30 33 35 36 37 38 38 38 37 35 33 30 27 26 28 29 30 32 35 37 37 35 33 32 33 36 36 38 41 42 38 33 28 24 23 22 22 23 23 26 28 28 28 32 31 25 22 24 23 16 12
17 17 16 16 16 15 16 16 17 17 17 17 17 18 20 22 23 24 25 26 27 27 26 24 23 23 25 27 28 27 27 27 26 26 28 31 33 35 35 36 37 37 36 34 31 29 28 27 28 31 32 35 36 36 35 34 33 32 32 34 34 36 42 44 42 37 32 26 21 20 19 18 20 23 26 27 27 31 33 29 27 28 24 17 13
17 16 15 15 14 14 14 15 15 15 15 16 16 17 19 20 22 23 24 25 26 26 26 26 25 23 24 25 27 27 28 28 27 27 27 29 32 33 34 35 35 34 33 31 28 28 28 29 31 34 36 37 37 35 35 35 33 31 31 33 33 36 41 41 39 37 34 28 21 18 19 19 19 21 24 25 26 29 34 35 34 32 27 22 20
17 16 15 14 14 13 13 13 13 13 14 14 15 16 18 19 21 23 23 23 24 26 27 27 27 25 24 24 25 26 28 29 29 28 27 27 29 31 33 34 33 32 31 29 27 28 31 33 36 38 38 38 37 36 36 36 33 30 31 34 35 37 38 36 32 29 26 23 19 17 17 17 16 16 18 21 23 26 31 35 36 36 32 28 26
16 15 14 14 13 13 12 12 12 12 12 13 14 15 17 19 20 21 22 22 23 25 27 27 27 27 26 25 24 25 26 27 28 28 27 26 28 30 32 33 32 32 31 30 29 30 32 36 38 39 39 39 38 37 37 37 35 32 34 35 34 34 33 30 28 25 22 20 18 15 12 10 9 10 10 13 16 20 27 33 35 38 37 33 30
16 15 14 13 12 12 11 11 10 10 10 11 13 14 15 17 18 19 20 21 23 24 26 27 27 28 29 28 26 25 26 27 28 28 27 26 27 28 30 32 32 32 32 32 32 32 33 34 36 38 39 39 38 38 38 38 38 36 36 36 35 34 33 29 27 25 24 24 25 23 20 15 11 10 9 8 9 12 20 29 32 35 39 38 35
15 15 14 13 11 11 10 10 10 9 9 10 11 12 13 14 16 17 19 20 22 23 24 26 28 29 30 30 29 27 27 28 28 29 28 28 27 27 28 30 32 32 32 32 32 32 32 33 35 37 38 39 39 38 38 39 39 39 38 37 37 36 35 33 30 27 26 27 29 28 26 22 18 16 15 13 12 10 12 19 26 30 35 38 36
15 14 15 13 12 10 9 8 8 7 8 8 9 10 10 11 13 15 17 19 20 22 22 24 26 28 29 30 30 29 28 29 29 29 29 29 28 26 26 28 30 31 32 32 33 33 32 33 34 35 37 39 39 38 39 40 40 40 40 39 38 38 37 35 31 28 28 28 28 27 27 24 21 19 18 16 15 12 10 10 17 24 28 32 32
16 15 14 14 12 10 9 7 6 5 5 6 6 7 8 9 11 13 15 17 18 20 21 22 24 26 28 29 29 29 28 29 29 29 29 30 28 25 24 27 29 30 31 32 33 33 33 33 33 35 37 38 39 39 39 39 40 41 42 40 38 38 36 34 31 30 29 28 27 27 27 25 22 20 18 16 15 14 11 7 7 13 18 24 27
17 16 14 13 12 10 9 7 5 4 3 3 4 5 6 8 9 11 13 15 16 17 19 20 22 24 26 27 28 28 28 28 29 30 30 31 29 26 25 27 28 29 30 31 32 33 34 34 34 35 36 37 38 38 38 39 41 42 43 42 40 38 36 33 31 30 29 28 27 27 27 25 24 25 24 21 21 20 17 13 7 2 6 15 19
18 17 15 13 12 10 8 7 6 4 3 3 2 3 4 6 7 8 10 12 14 15 16 18 20 21 23 25 26 28 28 28 28 29 29 29 28 27 26 27 29 30 31 32 33 33 33 33 34 34 35 36 38 38 39 41 42 42 42 42 41 39 37 34 32 31 29 28 28 28 28 28 30 32 32 31 30 26 21 17 16 14 7 6 11
16 15 14 13 12 10 8 7 6 5 4 3 2 2 3 4 5 7 8 10 12 13 14 16 17 18 19 21 24 27 27 27 27 26 26 25 25 27 27 28 29 31 32 34 34 33 33 33 35 36 37 37 38 39 40 41 41 41 41 41 41 40 39 37 35 34 32 31 31 31 31 32 33 34 35 35 34 30 27 23 22 20 18 14 13
15 14 13 12 11 10 8 7 6 5 4 4 3 2 2 3 4 5 7 8 9 11 12 13 15 16 16 17 20 23 25 25 25 23 23 22 22 24 26 27 28 30 32 33 34 34 34 34 35 37 37 36 36 36 37 38 39 40 40 41 41 40 40 39 37 34 33 33 33 32 31 32 32 33 34 34 33 33 32 30 28 26 26 25 23
14 14 13 12 11 10 9 7 6 5 5 4 3 2 2 3 4 4 5 6 7 9 10 11 13 14 16 16 17 18 20 22 23 23 22 21 20 21 23 24 26 28 30 32 33 33 33 33 33 34 34 33 33 33 34 35 36 36 38 40 40 40 40 39 37 35 33 33 32 31 31 30 31 32 32 31 32 33 34 33 32 31 29 26 25
15 15 13 11 11 10 8 7 6 6 5 4 3 2 1 2 3 4 5 6 7 7 8 9 11 13 14 16 17 17 18 20 22 23 23 22 21 21 21 23 25 27 29 31 33 32 31 31 31 32 32 32 32 32 32 33 33 33 35 37 39 39 39 38 36 36 35 34 33 32 31 31 31 31 31 30 30 31 33 34 33 32 31 28 25
16 16 14 12 11 10 8 6 6 6 5 4 3 2 1 1 3 4 5 6 6 7 7 8 10 11 12 14 15 17 18 19 21 23 23 22 22 21 21 22 24 26 28 30 31 31 30 30 30 30 31 31 32 32 32 33 33 32 33 34 36 37 37 36 36 37 37 35 34 32 32 32 31 32 31 31 30 30 30 31 31 30 30 30 29
15 15 14 13 12 11 9 7 6 5 5 4 3 2 1 1 2 4 5 6 6 7 7 8 9 10 11 12 14 15 17 18 20 22 23 23 23 22 21 22 23 25 27 29 30 30 30 30 30 30 30 30 31 32 33 33 34 34 33 31 31 34 36 36 37 38 37 36 35 34 33 32 32 32 31 31 30 29 29 29 29 29 28 28 27
13 15 14 13 12 11 9 8 6 5 5 4 4 2 2 1 2 3 4 5 6 7 8 8 9 9 11 12 13 14 15 16 18 20 21 22 23 23 22 23 24 25 26 28 29 29 29 30 30 30 30 30 31 31 33 34 34 35 34 33 32 32 34 36 37 37 36 36 36 35 34 33 32 31 30 30 30 29 29 29 29 29 28 27 26
13 15 14 13 12 11 10 9 8 6 5 5 5 3 3 2 3 3 4 5 6 7 7 8 9 10 10 11 12 14 15 15 16 17 19 20 22 23 25 26 27 27 26 26 27 28 29 29 29 29 29 30 30 31 32 33 35 35 36 36 35 34 34 34 34 35 35 35 35 35 34 34 32 30 29 29 29 29 28 28 29 29 28 27 27
14 15 15 13 12 11 11 10 10 8 6 5 5 5 4 4 4 4 4 5 6 6 7 8 9 9 10 10 11 12 13 14 14 15 16 17 19 22 25 26 26 26 26 26 25 26 28 29 28 28 28 29 29 30 31 32 34 35 36 36 36 36 35 32 31 32 33 34 34 35 35 35 33 31 28 28 28 28 27 27 29 29 28 27 27
15 16 15 12 11 11 11 11 11 10 8 6 6 6 6 5 5 5 5 5 6 6 7 8 8 9 10 10 11 12 12 12 13 13 14 15 17 19 22 23 23 23 24 24 23 24 27 28 28 27 27 27 28 28 29 31 33 35 35 35 35 36 35 33 30 30 31 32 33 33 34 34 34 32 29 27 27 28 28 28 28 28 28 28 27
15 15 15 12 10 11 12 12 13 13 11 9 8 7 7 7 7 7 7 6 6 7 7 8 8 9 9 10 10 11 12 12 13 14 15 15 16 17 18 19 21 21 22 23 22 21 23 25 26 25 25 25 26 27 29 31 32 33 34 33 33 33 34 33 31 29 29 30 31 32 32 33 34 34 32 30 29 28 28 28 27 27 27 27 27
15 16 15 12 11 11 11 12 13 14 14 12 10 8 8 8 8 8 8 8 8 8 8 9 8 8 8 9 10 11 12 12 13 14 15 15 15 15 16 17 18 19 20 21 21 20 20 21 22 22 22 23 24 26 28 29 30 32 32 31 31 31 32 32 32 30 28 27 28 29 31 32 33 33 33 32 31 29 28 27 27 26 25 25 25
17 16 15 12 11 10 10 10 12 14 15 14 12 10 9 9 8 7 7 8 9 9 9 10 9 8 7 8 9 11 12 12 12 12 13 14 14 14 14 15 16 17 18 19 20 20 19 19 20 21 21 22 24 26 27 27 29 30 30 29 29 30 30 30 31 30 30 28 27 27 28 29 30 31 31 30 29 27 26 25 25 24 23 22 23
18 16 14 12 10 10 11 11 12 12 13 14 13 12 11 10 9 8 7 8 9 9 10 10 10 8 7 8 9 10 11 11 11 11 11 12 12 13 13 13 14 15 16 17 18 18 18 19 19 20 20 21 23 26 27 28 28 30 29 27 27 28 28 28 29 29 29 29 28 28 27 27 26 27 27 27 27 26 24 23 22 22 22 21 21
17 16 14 12 11 11 12 13 12 11 12 13 14 13 12 11 10 9 8 7 8 9 10 11 10 9 8 8 8 9 10 10 11 11 10 10 11 11 12 12 12 13 14 15 16 17 17 17 18 19 20 21 23 26 27 28 29 29 27 25 25 26 27 26 27 28 28 29 29 29 28 27 26 25 24 23 24 24 23 21 20 20 20 19 18
18 17 15 13 12 12 13 13 13 12 12 13 14 14 14 13 12 11 10 9 9 10 11 10 10 9 8 8 9 9 9 10 10 10 10 10 10 11 11 11 11 12 13 14 15 16 16 17 17 18 19 20 22 24 26 27 28 27 24 22 22 24 25 25 25 26 27 28 29 29 29 28 26 24 23 21 21 21 21 20 18 17 17 17 16
19 17 16 14 12 13 13 13 13 13 13 12 13 13 14 14 13 12 11 11 11 10 10 10 9 8 8 8 9 10 10 9 9 10 10 10 10 10 10 10 11 11 12 13 14 15 16 17 17 17 17 18 19 21 23 25 27 25 21 19 19 21 22 23 24 25 26 27 27 28 28 27 25 24 22 20 19 18 19 19 17 16 15 14 14
18 18 17 15 14 14 14 14 13 13 13 13 12 12 12 13 13 13 12 12 12 12 11 10 9 8 8 8 8 9 10 9 9 9 10 10 10 10 9 10 10 11 11 12 13 14 15 16 17 17 16 17 18 18 20 23 24 22 19 17 17 19 20 21 21 22 23 24 25 26 26 25 24 22 21 20 18 16 16 17 17 16 15 14 13
18 18 18 17 16 15 15 15 14 13 14 14 14 13 13 13 13 13 13 14 13 13 12 10 10 9 9 8 8 8 9 9 9 9 9 9 9 9 9 9 10 10 11 11 11 13 15 15 16 16 15 15 16 16 17 20 22 20 18 16 15 15 16 17 18 18 19 21 23 24 24 23 23 21 20 19 18 16 14 15 17 17 17 16 14
15 15 17 18 17 16 16 16 15 14 15 15 15 14 14 13 13 13 14 14 14 14 13 12 11 11 11 10 9 8 8 8 9 9 9 9 9 9 9 8 9 10 10 10 10 12 13 14 14 14 14 14 14 14 15 18 20 20 19 17 15 14 15 15 15 16 17 18 20 22 22 22 22 21 20 19 18 16 14 14 15 16 16 17 16
16 15 15 17 17 17 17 17 17 16 16 17 17 16 15 15 15 15 15 15 15 15 15 14 13 12 12 11 11 10 9 9 10 10 10 9 9 9 8 9 9 9 10 10 10 11 12 13 13 12 13 13 13 13 14 16 18 19 20 19 17 16 15 14 14 15 16 16 18 20 21 21 20 20 19 18 18 17 15 14 13 14 14 15 15
20 18 17 17 18 19 19 19 18 17 18 19 19 18 17 17 17 17 17 16 16 17 17 16 15 14 13 13 12 12 11 10 10 10 10 10 9 9 9 9 9 9 9 10 10 10 11 11 11 11 12 13 13 13 14 15 16 17 19 19 19 17 16 15 15 15 15 15 16 18 20 20 19 18 18 18 17 15 15 15 14 14 13 13 12
22 21 20 19 19 20 21 21 20 19 19 20 21 20 20 20 20 20 19 18 18 19 19 19 18 16 15 15 14 13 13 12 11 11 10 10 10 10 10 9 9 9 9 9 10 10 10 10 10 10 10 11 12 13 13 14 15 16 17 18 18 18 18 17 16 15 15 16 16 17 19 19 17 16 17 18 17 15 15 15 15 14 14 12 10
24 24 23 22 21 21 22 23 22 21 21 22 23 23 23 22 22 22 22 21 21 21 21 21 20 19 18 17 16 15 15 14 13 12 11 11 10 10 10 10 9 9 9 9 8 9 9 9 9 9 9 10 11 12 12 13 14 15 16 17 17 18 18 18 17 16 16 15 15 16 17 17 16 15 16 17 17 17 16 16 16 15 14 11 8
Wind_Direction
88 88 87 82 80 80 77 72 69 63 59 57 57 56 53 51 50 51 52 52 49 45 40 37 35 34 32 30 28 25 23 19 16 15 14 13 12 9 5 3 360 356 356 355 355 356 351 346 342 340 339 333 326 323 320 317 312 300 286 273 265 263 258 249 243 252 245 235 233 234 235 233 228 226 227 227 227 225 224 225 225 223 224 226 224
91 89 86 82 79 78 77 75 73 69 64 61 58 55 52 50 51 52 52 51 49 45 40 38 37 35 33 31 28 27 24 21 17 15 14 12 12 11 8 5 0 355 355 355 353 352 349 345 343 343 345 342 337 335 332 326 318 305 292 280 272 269 262 250 243 246 243 233 233 236 236 231 227 226 225 224 225 223 220 219 220 220 221 224 221
91 89 87 83 79 77 75 74 74 72 68 63 58 55 54 52 52 52 52 50 48 46 41 39 37 35 33 31 28 26 25 22 19 16 14 12 11 10 8 6 2 354 351 352 351 349 349 348 345 345 349 349 346 345 342 338 331 319 305 289 279 277 270 252 240 238 240 233 230 229 227 225 225 225 224 224 224 221 218 216 216 218 221 224 222
94 93 90 86 83 79 75 73 71 69 68 64 60 58 55 53 51 50 50 49 47 44 41 39 36 34 32 29 27 26 24 22 20 18 16 13 11 10 8 6 0 353 348 349 350 350 349 348 346 346 349 350 349 348 345 342 340 334 325 309 289 281 277 263 246 238 236 233 228 226 225 223 224 224 223 222 220 219 219 217 215 216 218 220 220
99 98 94 89 84 79 74 71 70 70 69 65 61 57 53 50 48 47 47 46 44 42 39 37 35 33 30 27 25 25 23 21 20 19 17 15 13 11 9 7 0 353 350 349 350 351 349 347 346 348 350 349 349 347 345 342 339 336 335 331 316 294 281 272 260 245 234 230 229 227 225 224 223 224 222 218 215 215 217 214 211 212 213 215 217
104 101 97 91 85 79 74 71 71 71 69 64 59 55 50 47 44 43 43 42 40 39 37 36 34 32 30 27 25 24 23 21 19 19 18 16 14 10 8 6 2 358 355 352 350 349 348 347 346 349 351 349 347 346 344 342 340 336 333 335 334 322 300 280 266 254 242 237 234 226 222 221 220 222 223 220 214 210 209 209 210 212 210 211 215
107 104 101 95 88 83 78 74 74 72 68 64 58 52 48 43 40 40 39 38 37 34 34 34 33 32 31 28 24 23 22 21 19 18 18 17 15 11 7 5 1 0 1 358 355 351 348 347 346 349 351 348 345 345 343 341 339 335 332 332 335 334 324 303 274 253 244 241 235 227 223 222 218 219 223 223 218 213 207 201 203 208 209 209 210
107 105 105 100 93 87 82 78 76 74 70 64 56 49 45 41 38 37 36 35 34 32 32 33 33 33 31 28 25 23 22 21 18 17 15 15 16 13 10 7 1 358 359 359 360 356 352 350 347 346 347 345 344 344 342 342 339 333 333 336 334 330 329 321 298 262 242 237 234 231 230 226 219 218 219 215 212 212 207 199 198 202 205 207 208
105 104 105 103 99 91 85 80 77 74 69 62 55 48 44 43 42 41 39 37 35 33 33 33 32 32 30 29 27 24 22 20 18 16 14 13 15 14 12 11 7 0 356 357 359 358 354 351 347 342 342 342 343 342 341 341 338 331 331 336 335 327 322 320 311 284 254 239 234 229 225 224 219 214 210 207 209 211 206 199 199 203 204 204 205
104 103 103 103 103 96 87 81 76 71 68 64 58 54 52 50 48 45 43 40 38 36 35 35 35 32 30 29 28 26 23 19 17 18 17 15 14 14 12 12 9 4 357 354 355 354 351 350 346 342 342 343 342 341 342 342 340 334 333 334 332 325 317 313 309 298 274 251 239 228 220 222 221 213 210 212 213 210 202 197 197 198 199 199 199
105 103 102 101 100 95 88 82 77 74 73 69 64 59 55 51 48 45 42 40 38 38 37 37 36 34 32 30 28 27 23 18 17 18 18 17 16 14 12 11 9 5 359 354 352 350 349 348 346 344 344 345 343 341 342 343 342 341 339 338 335 327 316 308 304 302 290 269 250 235 224 225 225 218 215 215 211 204 202 202 196 188 188 192 191
107 103 99 97 93 89 87 84 82 81 79 72 65 58 52 49 46 42 40 38 38 39 39 38 36 35 34 32 29 28 23 18 18 18 18 19 18 15 13 11 8 5 0 355 350 349 349 346 344 344 343 343 343 343 342 342 342 342 341 340 339 336 327 313 302 297 291 281 266 247 232 228 227 221 216 214 209 204 205 204 196 189 189 194 193
106 104 100 97 93 91 89 88 87 86 81 73 65 58 52 49 45 41 40 39 39 40 40 39 37 35 34 33 30 28 24 20 18 18 18 19 18 16 14 10 7 4 1 357 352 349 349 346 344 342 341 342 343 343 342 340 340 340 341 341 339 338 335 326 313 303 294 285 276 262 246 235 230 225 220 217 211 205 203 201 197 194 195 198 199
109 106 103 99 96 95 93 91 90 87 82 75 68 62 56 51 48 45 43 42 41 41 40 39 38 35 33 33 31 28 26 21 19 18 18 18 18 16 14 11 7 4 1 359 355 351 349 348 345 341 340 342 343 342 342 340 338 338 338 338 336 335 336 333 327 321 310 297 287 277 263 247 238 234 230 223 215 208 204 203 201 199 200 204 204
113 110 108 104 101 98 95 92 90 86 82 77 71 65 58 53 50 48 46 45 43 41 40 38 37 35 33 32 31 29 27 24 21 19 18 17 17 15 13 10 7 4 2 1 358 354 352 350 347 344 341 341 342 344 344 342 338 337 335 333 332 331 333 334 330 324 316 306 298 289 280 266 249 242 240 231 222 218 215 212 208 203 200 201 200
117 116 115 112 107 102 97 93 90 85 81 77 72 66 59 54 51 48 48 48 45 43 41 38 36 35 33 32 30 29 28 26 23 21 18 17 15 14 12 10 6 3 1 0 358 356 355 352 349 346 343 342 343 346 348 345 341 338 334 331 330 328 329 332 331 324 315 306 296 287 284 278 262 250 245 238 229 223 217 213 206 196 190 191 191
124 124 123 119 113 106 100 95 91 86 82 77 72 67 60 55 51 49 48 47 45 43 41 39 38 37 35 33 30 29 29 26 22 20 19 17 15 13 11 8 5 2 360 359 358 357 357 355 352 350 346 344 347 350 352 350 344 341 337 332 329 327 329 333 333 327 319 308 294 283 279 276 269 257 246 242 237 223 208 199 192 184 184 190 187
132 132 129 125 119 111 104 98 93 89 84 78 74 68 62 56 52 50 49 48 46 45 42 42 43 41 37 34 31 30 30 26 21 20 20 18 15 13 10 6 4 1 359 358 357 357 357 355 356 355 350 349 351 354 356 353 348 344 340 335 331 329 330 334 334 329 324 314 297 284 280 277 275 266 249 240 237 223 207 198 194 187 188 196 190
139 134 132 129 124 117 110 102 97 92 86 80 74 68 63 58 53 51 51 50 49 47 45 44 43 41 38 34 32 30 30 28 22 19 19 18 15 13 10 7 3 360 358 357 356 358 358 358 360 360 356 355 357 358 359 358 354 348 344 341 335 331 331 334 334 331 327 321 309 298 296 293 288 279 258 241 234 223 213 207 200 193 192 197 190
145 136 132 131 128 122 116 109 102 95 88 80 74 68 63 58 53 50 50 51 50 48 47 45 43 41 37 34 31 30 29 27 24 20 19 20 17 15 13 9 4 360 359 358 357 358 0 2 3 3 1 1 2 2 3 3 359 354 351 347 339 333 335 338 338 338 339 337 328 316 308 301 294 288 268 248 236 225 218 213 205 199 196 195 191
154 146 138 134 132 129 123 115 107 98 90 81 74 68 62 56 51 49 48 49 48 46 44 42 40 39 37 34 33 32 30 27 25 22 22 22 20 18 16 13 8 4 3 3 2 2 1 2 3 4 4 4 4 5 5 5 5 2 358 354 347 345 347 346 345 353 5 9 2 350 338 327 311 303 288 264 248 232 220 215 211 207 204 199 195
163 158 150 143 138 134 129 121 111 101 92 82 72 66 61 55 50 47 46 46 46 43 40 37 35 34 34 34 34 34 33 29 25 23 24 23 22 21 20 17 14 11 8 7 7 5 2 1 2 4 5 6 7 7 7 8 9 7 4 2 1 2 2 358 356 5 19 26 23 13 5 7 4 348 336 317 290 253 228 220 216 214 212 208 204
166 166 163 159 151 143 135 127 116 104 93 82 71 64 59 54 49 45 42 42 43 41 37 33 30 29 29 31 34 35 33 29 26 24 24 23 20 21 22 21 18 16 12 9 7 5 3 2 3 5 8 8 9 9 9 10 11 10 9 9 9 10 10 7 6 9 18 28 31 20 6 7 15 12 3 352 338 310 264 235 223 219 217 214 211
170 170 170 170 166 158 149 137 125 109 94 81 71 64 58 52 47 43 40 39 39 37 34 30 28 26 24 25 29 31 31 29 27 25 24 20 17 17 19 19 17 16 14 12 10 8 6 5 6 9 11 11 11 11 11 12 13 13 13 14 13 13 12 10 9 12 16 23 29 24 10 4 11 20 19 10 357 340 313 266 234 225 220 216 212
176 176 176 174 174 173 168 157 141 121 103 85 72 64 56 49 45 41 38 37 36 34 31 28 26 25 23 21 23 26 28 27 25 24 22 18 15 14 15 15 14 13 13 13 12 12 11 11 12 14 14 14 13 12 12 12 14 15 16 16 15 15 13 10 10 15 18 18 22 25 18 8 11 26 33 28 17 8 0 341 254 228 221 215 211
182 184 183 178 178 180 180 174 162 148 132 106 79 64 53 46 41 38 36 36 35 32 30 27 25 24 22 20 19 21 24 24 22 21 19 16 13 11 10 12 13 12 12 13 13 14 14 14 15 16 16 16 16 14 13 13 15 17 18 17 16 15 14 12 13 16 18 18 20 24 22 16 21 33 40 40 35 29 25 24 27 44 203 201 196
182 189 190 185 183 184 184 180 173 168 165 147 110 67 52 43 36 32 33 33 33 32 29 26 24 22 19 18 18 19 21 21 20 19 17 14 12 10 10 11 12 11 13 15 15 14 14 14 16 17 17 17 18 17 16 17 17 17 17 17 17 16 16 17 18 20 21 21 23 26 26 26 31 37 41 42 40 37 38 40 39 36 42 152 154
169 179 185 187 186 184 183 180 174 173 172 160 139 83 52 39 29 28 29 28 28 28 27 25 23 20 17 15 15 17 18 18 17 16 15 14 12 11 13 14 13 13 15 17 17 15 15 15 15 17 16 16 17 17 17 17 17 17 16 16 16 17 18 20 22 22 23 26 28 29 29 30 33 37 40 42 39 37 42 50 51 50 53 61 65
156 162 169 175 179 180 181 181 177 174 170 159 141 101 56 33 23 24 27 27 25 24 24 24 22 22 20 17 15 14 14 14 13 13 15 16 14 13 15 16 15 13 15 18 18 16 15 15 15 14 14 13 13 14 15 15 15 16 16 16 16 17 18 19 19 19 22 26 28 28 29 31 33 37 40 40 38 38 43 48 52 56 60 57 47
159 159 161 165 170 174 178 180 179 173 166 162 157 130 73 37 25 23 24 27 25 23 23 22 19 20 23 24 22 17 13 12 13 14 15 16 16 17 16 16 15 13 13 17 19 16 13 13 13 12 12 12 12 12 12 13 14 13 14 16 16 16 18 19 18 18 22 27 28 29 30 32 34 37 38 38 38 39 43 46 48 52 55 54 49
168 164 163 166 170 173 175 180 181 174 164 161 164 158 115 39 29 28 27 27 24 22 24 24 21 20 19 21 24 24 20 17 16 17 18 17 16 18 18 18 18 18 16 18 19 16 12 10 10 11 12 12 12 11 11 12 13 13 13 15 16 17 18 18 19 21 24 26 28 30 32 34 36 38 39 39 38 39 42 45 47 49 50 51 50
178 170 169 173 177 176 177 181 185 183 176 171 171 172 182 10 23 28 27 24 19 19 22 26 27 24 20 18 18 20 20 19 17 17 20 19 18 20 22 23 24 24 22 21 18 14 11 9 8 9 10 10 10 10 11 11 12 14 15 16 16 17 18 19 21 24 26 26 27 29 32 34 38 40 41 41 41 39 40 42 43 46 48 49 49
185 178 176 181 183 182 182 185 188 192 193 191 189 186 198 292 356 15 21 19 15 13 14 18 22 24 23 20 17 16 17 17 16 16 19 20 21 21 23 25 27 28 27 24 19 14 11 9 8 9 9 9 10 10 12 13 13 15 17 17 17 19 20 22 25 27 28 28 29 31 32 34 37 40 41 43 43 41 40 40 41 44 45 45 47
189 184 183 188 192 192 191 191 193 200 205 208 210 208 215 260 316 346 0 7 10 9 7 7 10 16 19 19 17 16 17 16 15 15 17 20 22 22 22 25 28 29 29 26 20 15 11 9 8 9 11 12 13 13 14 15 16 16 17 18 20 22 24 25 27 27 27 29 30 31 34 35 37 38 39 40 41 41 41 41 41 42 43 43 44
189 187 189 194 197 200 202 200 200 206 215 220 219 218 231 255 285 313 334 347 356 359 359 358 360 4 10 14 15 15 16 16 15 14 15 18 20 21 23 26 26 26 27 26 21 17 14 11 10 11 14 17 18 18 18 19 19 19 18 18 20 23 24 26 27 26 27 29 29 31 34 36 37 38 39 39 40 39 39 41 44 45 45 46 46
188 189 194 199 201 207 212 213 210 211 219 228 227 229 244 262 279 298 315 328 336 342 347 352 355 358 1 5 8 10 14 16 15 13 14 17 20 21 23 24 24 23 24 24 21 18 17 16 15 16 18 20 21 22 23 23 22 22 21 20 20 22 23 26 28 28 29 30 30 31 33 34 35 37 37 36 38 38 39 42 46 49 51 52 51
192 193 197 200 204 210 218 222 221 218 221 230 234 239 250 262 276 288 299 311 320 326 332 341 348 354 358 2 2 4 9 14 15 15 17 18 20 22 23 22 21 21 23 24 22 18 17 18 20 21 21 22 22 22 23 23 21 21 22 21 21 21 23 26 29 31 32 33 33 33 34 34 35 36 36 35 36 38 41 44 47 50 56 59 58
195 195 198 203 211 219 224 227 227 224 224 228 234 242 251 260 271 282 289 298 307 313 321 328 336 344 351 356 355 355 360 6 10 14 18 18 17 19 19 18 19 19 20 23 23 19 15 18 21 23 22 22 22 21 19 19 19 18 18 19 20 21 23 27 30 32 34 35 36 36 37 38 38 37 38 38 39 41 44 47 49 51 55 59 62
194 196 203 210 217 225 229 230 227 225 224 227 233 241 248 256 267 278 286 293 299 306 312 317 323 331 340 347 347 346 349 356 1 5 9 11 12 12 12 12 15 16 16 19 21 18 13 12 15 18 19 19 19 18 17 16 16 16 15 15 18 20 23 26 30 32 33 35 36 36 37 39 39 39 40 40 41 44 47 49 52 55 58 62 65
192 198 206 212 219 224 227 226 225 225 225 228 233 239 244 249 259 275 287 293 299 304 307 308 313 322 330 335 338 337 339 345 352 356 359 2 5 6 6 6 8 10 11 13 15 15 11 7 6 10 13 15 15 15 14 14 15 15 14 14 16 19 23 27 31 33 33 34 35 35 34 35 36 38 40 42 43 45 48 51 54 58 62 67 71
196 203 210 216 222 226 224 222 224 227 230 232 236 241 245 248 253 265 280 291 300 304 304 303 308 314 317 320 325 329 331 336 342 346 350 354 358 360 1 1 2 4 6 7 8 9 8 5 3 4 8 11 12 11 11 12 13 13 13 14 16 19 23 27 31 33 33 33 34 34 33 32 33 34 38 41 43 45 49 52 54 57 59 63 69
207 212 215 219 225 227 223 222 224 230 236 239 240 244 248 250 252 257 265 279 295 300 299 301 306 309 307 306 311 317 323 328 333 338 341 345 349 354 358 358 357 360 1 1 1 1 1 1 0 0 2 6 7 7 8 10 11 11 12 15 17 20 23 28 30 31 31 31 31 31 30 31 32 32 34 37 40 43 48 51 52 55 57 58 62
216 218 219 222 228 226 221 221 225 231 237 242 244 246 248 250 251 253 256 266 281 289 292 297 302 303 301 298 298 304 314 322 327 331 334 336 340 346 351 353 354 356 358 357 357 356 356 355 356 357 358 1 3 4 5 8 9 10 12 17 19 20 23 27 29 29 29 28 26 25 24 25 27 29 31 34 37 39 44 49 52 55 57 58 60
218 221 222 225 229 228 222 223 227 230 232 237 241 243 244 246 249 250 251 258 270 279 284 290 296 296 296 295 293 295 304 314 321 325 327 329 332 337 343 346 348 351 355 358 358 357 356 356 355 356 358 2 4 3 3 5 7 10 14 19 20 20 21 24 26 26 26 23 20 19 18 18 21 25 26 28 32 35 39 44 49 53 55 55 58
220 225 226 227 230 230 228 228 230 230 228 230 232 234 235 239 245 248 249 253 262 269 274 281 286 287 289 292 292 295 300 305 312 318 321 323 326 331 337 341 344 346 350 356 359 359 359 359 358 358 360 3 5 5 4 3 6 11 18 21 21 20 19 20 20 21 21 19 17 16 15 15 19 22 23 24 28 34 38 40 41 45 48 49 51
226 231 233 233 233 235 234 234 234 232 228 225 227 229 231 236 242 245 247 250 257 262 267 272 276 279 283 288 291 296 299 299 300 307 314 318 322 326 331 337 342 343 345 350 355 358 0 1 0 1 3 3 4 6 6 4 7 14 20 21 20 20 19 17 15 15 15 15 16 16 16 17 20 21 22 24 29 35 42 44 40 40 41 41 42
233 238 237 234 234 237 238 236 235 233 229 226 227 230 232 237 242 244 245 249 253 256 260 265 269 274 279 283 286 292 298 296 294 297 303 309 316 321 325 331 337 339 342 347 352 355 359 1 3 5 7 5 4 6 7 8 10 15 19 19 19 18 17 15 12 11 11 13 15 16 17 19 21 21 23 28 31 35 44 49 45 40 37 34 34
237 240 239 235 234 238 239 235 232 231 229 226 227 231 235 239 242 244 245 247 250 253 256 260 265 269 274 278 281 286 290 291 290 289 292 298 306 313 318 325 331 333 337 343 349 351 354 359 4 9 11 9 7 5 5 7 10 14 17 19 19 16 14 12 11 10 11 13 16 18 20 20 21 23 27 31 32 35 41 45 43 40 36 30 28
237 240 241 239 238 239 238 234 231 232 231 229 229 233 237 240 243 245 247 248 250 252 255 258 261 265 269 273 276 280 283 285 286 286 286 290 296 302 308 317 324 327 330 337 344 347 349 352 359 8 13 11 8 6 3 3 6 10 13 16 17 17 16 14 13 13 15 16 18 20 23 23 23 27 32 34 33 34 37 37 36 37 36 30 26
237 240 242 244 243 240 237 236 235 234 233 233 234 236 238 240 243 246 249 249 250 252 254 256 258 261 264 267 270 273 277 280 283 284 282 283 288 292 297 305 314 319 324 331 338 341 342 344 349 358 6 8 8 6 3 1 2 5 8 10 12 13 14 15 15 16 18 20 21 21 23 26 28 30 34 35 34 34 34 32 29 29 28 26 26
238 240 241 244 244 241 238 238 239 238 235 235 237 239 240 242 245 247 249 249 251 253 256 257 258 260 262 264 266 268 271 274 278 280 280 280 282 286 289 294 301 307 313 321 330 336 337 338 341 346 352 358 3 5 2 0 1 2 3 5 7 8 10 12 14 15 17 19 20 22 23 26 29 31 32 33 33 32 31 30 28 26 22 20 22